Regional Weather Roundup
Issued by NWS

Home | Current Version | Previous Version | Graphics & Text | Print | Product List | Glossary On
Versions: 1 2 3 4 5 6 7 8 9 10 11 12 13 14 15 16 17 18 19 20 21 22 23 24 25 26 27 28 29 30 31 32 33 34 35 36 37 38 39 40 41 42 43 44 45 46 47 48 49 50
000
ASUS43 KMKX 290411
RWRWI

WISCONSIN REGIONAL WEATHER ROUNDUP
NATIONAL WEATHER SERVICE MILWAUKEE/SULLIVAN WI
1100 PM CDT FRI AUG 28 2015

NOTE: "FAIR" INDICATES FEW OR NO CLOUDS BELOW 12,000 FEET WITH NO
SIGNIFICANT WEATHER AND/OR OBSTRUCTIONS TO VISIBILITY.

WIZ001-002-006>008-014>016-023>028-290500-
NORTHWEST WISCONSIN

CITY           SKY/WX    TMP DP  RH WIND       PRES   REMARKS
SUPERIOR ARPT  CLEAR     66  62  85 SW9       29.98S
ASHLAND        CLEAR     66  62  87 S13       30.00S
HAYWARD        CLOUDY    65  59  81 SW8       30.05F
SIREN          CLEAR     61  56  85 SW3       30.06R
CUMBERLAND     CLEAR     55  54  94 SE3       30.07S
RICE LAKE      CLEAR     57  55  91 CALM      30.08S
CHETEK         CLEAR     58  56  93 CALM      30.07S
LADYSMITH      CLEAR     58  56  92 CALM      30.10R
EAU CLAIRE     FAIR      56  54  93 NE6       30.06F
MENOMONIE      CLEAR     57  56  96 CALM      30.07R
NEW RICHMOND   CLEAR     55  55  99 E3        30.06S
OSCEOLA        CLEAR     57  57 100 CALM      30.08F
$$

WIZ003>005-009-010-017-018-290500-
NORTH CENTRAL WISCONSIN

CITY           SKY/WX    TMP DP  RH WIND       PRES   REMARKS
MANITOWISH WTR MOCLDY    62  61  97 SW7       30.05S
ARBOR VITAE    CLOUDY    62  60  93 SW12      30.05F
WOODRUFF       CLOUDY    62  60  93 SW12      30.05F
RHINELANDER    CLOUDY    62  58  86 SW14G26   30.08F
EAGLE RIVER    CLOUDY    62  61  96 SW7       30.05F
LAND O LAKES   CLOUDY    63  61  93 SW6       30.06R
PHILLIPS       CLOUDY    61  58  91 SW6       30.07F
TOMAHAWK       CLOUDY    60  56  89 SW3       30.09F
MEDFORD        CLOUDY    57  56  94 S7        30.10R
MERRILL        CLOUDY    60  58  96 SW3       30.11R
$$

WIZ029-030-035-036-043>047-290500-
CENTRAL WISCONSIN

CITY           SKY/WX    TMP DP  RH WIND       PRES   REMARKS
WAUSAU         CLOUDY    59  55  87 S10       30.09F
MOSINEE        CLOUDY    55  55 100 SE6       30.11S
MARSHFIELD     MOCLDY    58  53  84 SE6       30.09S
STEVENS POINT  CLOUDY    56  55  95 SE6       30.11F
WAUPACA        RAIN      59  58  95 CALM      30.13S
WAUTOMA        CLOUDY    58  58 100 CALM      30.11F
WISC RAPIDS    CLOUDY    58  54  86 SE6       30.10F
CAMP DOUGLAS   CLOUDY    57  57 100 SE8       30.06F
$$

WIZ011>013-019>022-031-037>040-048>050-290500-
NORTHEAST WISCONSIN

CITY           SKY/WX    TMP DP  RH WIND       PRES   REMARKS
ANTIGO         CLOUDY    58  57  99 SW13      30.11S FOG
SHAWANO        CLOUDY    61  58  88 SW8G17    30.11F
OCONTO         CLOUDY    60  60 100 SW5       30.10S
STURGEON BAY   CLOUDY    63  57  82 SW8       30.13S
GREEN BAY      RAIN      62  59  90 SW10      30.13R FOG
MANITOWOC      LGT RAIN  61  59  93 MISG      30.14R
APPLETON       LGT RAIN  59  59 100 VRB5      30.12S
CLINTONVILLE   DRIZZLE   59  55  88 SW9       30.12S
OSHKOSH        HVY RAIN  59  56  89 SE3       30.13F FOG
$$

WIZ032>034-041-042-053>061-290500-
SOUTHWEST WISCONSIN

CITY           SKY/WX    TMP DP  RH WIND       PRES   REMARKS
LA CROSSE      CLOUDY    60  57  89 SE6       30.03F
SPARTA         CLOUDY    58  56  94 E6        30.06F
VIROQUA        CLOUDY    57  57 100 E9        30.04F
BOSCOBEL       RAIN      63  61  93 NE6       30.03S FOG
PRAIRIE DU CHI LGT RAIN  62  61  95 E9        29.99F
PLATTEVILLE    CLOUDY    64  64  97 SE15      30.00F
$$

WIZ056-057-062-063-064-067-068-290500-
SOUTH CENTRAL WISCONSIN

CITY           SKY/WX    TMP DP  RH WIND       PRES   REMARKS
REEDSBURG      RAIN      57  57  98 E8        30.07F
BARABOO/DELLS  RAIN      57  55  93 E15       30.07F
LONE ROCK      HVY RAIN  62  60  93 NE13      30.04F FOG
MINERAL POINT  RAIN      63  63 100 E6        30.02F
MADISON        LGT RAIN  64  62  93 E10       30.05F
MIDDLETON      CLOUDY    65  64  99 E7        30.06R
WATERTOWN      RAIN      59  59 100 E6        30.08F
MONROE         RAIN      63  61  94 SE15G21   30.04F
JANESVILLE     LGT RAIN  64  63  94 SE15      30.05F
$$

WIZ051-052-058>065-066-070>072-290500-
SOUTHEAST WISCONSIN

CITY           SKY/WX    TMP DP  RH WIND       PRES   REMARKS
MILWAUKEE      LGT RAIN  61  59  93 E6        30.11S FOG
WAUKESHA       RAIN      61  59  94 E3        30.11S
MILWAUKEE/TIMM LGT RAIN  63  59  88 E7        30.11S
RACINE         FOG       62  60  93 NE3       30.13R VSB 3/4
BURLINGTON     LGT RAIN  62  61  97 E3        30.10S
KENOSHA        CLOUDY    64  61  90 NE3       30.11R FOG
FOND DU LAC    LGT RAIN  60  57  89 N7        30.11F
SHEBOYGAN      LGT RAIN  60  58  92 CALM      30.13S
WEST BEND      LGT RAIN  59  55  88 CALM      30.10S
JUNEAU         RAIN      58  55  91 NE6       30.10S
$$

LSZ147-162-290500-
LAKE SUPERIOR

STATION/POSITION TIME  TEMP    WIND        PRES    WAVE
                       AIR SEA DIR/SP/G            HT/PER
                 (UTC) (F)     (DEG/KT/KT) (MB)    (FT/S)
W MID LAKE BUOY  0350   60 56  210/ 16/ 17 1013.8R   1/ 3
DEVILS ISLAND    0400   66     220/ 17/ 20 1014.3R
PORT WING        0310   70     200/  9/ 16 1014.9S
SAXON HARBOR     0300   69     200/  6/ 11 1014.9S
$$

LMZ867-665-643>646-290500-
LAKE MICHIGAN

STATION/POSITION TIME  TEMP    WIND        PRES    WAVE
                       AIR SEA DIR/SP/G            HT/PER
                 (UTC) (F)     (DEG/KT/KT) (MB)    (FT/S)
CHAMBERS ISLAND  0300   64     190/  9/ 15 1018.3S
S GREEN BAY BUOY 0400   63 62  230/  6/  8 1020.9
N MID LAKE BUOY  0350   63 64  230/ 12/ 14 1018.3R   3/ 5
NORTHPORT PIER   0300   64      CALM  /  6 1018.3R
SISTER BAY       0304   66     220/ 12/ 17   N/A
ALGOMA LAKESHORE 0344          270/  4/  6   N/A
SHEBOYGAN LAKESH 0400   60     210/  3/  4 1020.6R
PORT WASHINGTON  0340   56      40/  8/  9 1020.0F
ATWATER BUOY     0400   53 48  350/  2/  2 1020.8R
MILWAUKEE LAKESH 0300   55      40/  8/  8   N/A
S MID LAKE BUOY  0350   68 69   80/  8/ 10 1019.2S   0
KENOSHA   LAKESH 0400   58      10/  9/  9 1019.3R
$$

TC  - TEMPERATURE IN CELSIUS
VSB - VISIBILITY IN STATUTE MILES
WCI - WIND CHILL INDEX
HX  - HEAT INDEX




USA.gov is the U.S. government's official web portal to all federal, state and local government web resources and services.